TimeEST,TemperatureF,Dew PointF,Humidity,Sea Level PressureIn,VisibilityMPH,Wind Direction,Wind SpeedMPH,Gust SpeedMPH,PrecipitationIn,Events,Conditions,WindDirDegrees,DateUTC
12:53 AM,51.1,48.9,92,30.15,-9999.0,NNE,6.9,-,N/A,,Unknown,20,2012-12-13 05:53:00
1:53 AM,51.1,48.9,92,30.14,-9999.0,NNE,6.9,-,N/A,,Unknown,20,2012-12-13 06:53:00
2:53 AM,51.1,48.9,92,30.14,-9999.0,NNE,6.9,-,N/A,,Unknown,30,2012-12-13 07:53:00
3:53 AM,50.0,48.0,93,30.15,-9999.0,North,5.8,-,N/A,,Unknown,360,2012-12-13 08:53:00
4:53 AM,50.0,48.0,93,30.17,-9999.0,North,9.2,-,N/A,,Unknown,10,2012-12-13 09:53:00
5:53 AM,50.0,48.0,93,30.18,-9999.0,North,10.4,-,N/A,,Unknown,360,2012-12-13 10:53:00
6:53 AM,48.9,46.9,93,30.21,-9999.0,North,10.4,-,N/A,,Unknown,350,2012-12-13 11:53:00
7:53 AM,48.9,46.0,90,30.22,-9999.0,North,10.4,-,N/A,,Unknown,360,2012-12-13 12:53:00
8:53 AM,48.9,46.9,93,30.24,-9999.0,NNE,9.2,-,N/A,,Unknown,20,2012-12-13 13:53:00
9:53 AM,50.0,46.9,89,30.27,-9999.0,NNE,6.9,-,N/A,,Unknown,20,2012-12-13 14:53:00
10:53 AM,50.0,46.9,89,30.29,-9999.0,NNE,10.4,-,N/A,,Unknown,20,2012-12-13 15:53:00
11:53 AM,51.1,46.9,86,30.27,-9999.0,North,10.4,-,N/A,,Unknown,10,2012-12-13 16:53:00
12:53 PM,51.1,46.0,83,30.26,-9999.0,North,11.5,17.3,N/A,,Unknown,10,2012-12-13 17:53:00
1:53 PM,51.1,46.0,83,30.25,-9999.0,NNE,8.1,-,N/A,,Unknown,20,2012-12-13 18:53:00
2:53 PM,51.1,45.0,80,30.24,-9999.0,North,8.1,-,N/A,,Unknown,10,2012-12-13 19:53:00
3:53 PM,50.0,45.0,83,30.24,-9999.0,NNE,10.4,-,N/A,,Unknown,20,2012-12-13 20:53:00
4:53 PM,50.0,44.1,80,30.24,-9999.0,NNE,9.2,-,N/A,,Unknown,20,2012-12-13 21:53:00
5:53 PM,48.9,44.1,83,30.24,-9999.0,NE,10.4,16.1,N/A,,Unknown,40,2012-12-13 22:53:00
7:53 PM,46.9,43.0,86,30.27,-9999.0,NNE,8.1,-,N/A,,Unknown,30,2012-12-14 00:53:00
8:53 PM,46.9,43.0,86,30.28,-9999.0,NE,9.2,-,N/A,,Unknown,40,2012-12-14 01:53:00
9:53 PM,46.9,44.1,90,30.29,-9999.0,NE,8.1,-,N/A,,Unknown,50,2012-12-14 02:53:00
10:53 PM,46.0,44.1,93,30.30,-9999.0,NE,6.9,-,N/A,,Unknown,40,2012-12-14 03:53:00
11:53 PM,46.0,44.1,93,30.30,-9999.0,NNE,5.8,-,N/A,,Unknown,30,2012-12-14 04:53:00